Location: ??????????
(44.2167°N, 135.5333°E)
Time: 14:59:30
(UTC+00:00)

Cosmos 773 Rocket - Pass Details

Date: 15 June 2025
Orbit: 741 x 773 km, 74.1° (Epoch: 15 July)

Event Time Altitude Azimuth Distance (km) Brightness Sun altitude
Rises 17:35:44 0° 339° (NNW) 3,217 7.7 -13.5°
Reaches altitude 10° 17:38:05 10° 339° (NNW) 2,292 6.9 -13.2°
Maximum altitude 17:43:18 89° 254° (WSW) 768 4.0 -12.6°
Drops below altitude 10° 17:48:32 10° 161° (SSE) 2,297 6.2 -12.1°
Sets 17:50:54 0° 162° (SSE) 3,223 6.9 -11.8°
